Weather in Tymchenko

Ukraine / Cherkassi District     49°27′23″N   32°34′04″E
temp.,
°C
wind,
m/s
gust,
m/s
humid.,
%
clouds,
%
prec.,
mm/h
press.,
hPa
HPBL,
m
13 april, tue
tue1300:00+10s2280100 0.0 102159
03:00+9sse2383100 0.0 102052
06:00+9se3487100 0.0 1020102
09:00+10se4680100 0.0 1021301
12:00+12se567499 0.0 1020557
15:00+14se4561100 0.0 10191027
18:00+12s237199 0.1 1019293
21:00+11s3477100 0.1 1019102
14 april, wed
wed1400:00+9s238425 0.0 101831
03:00+8sse2385100 0.0 101850
06:00+8sse338595 0.0 101769
09:00+11sse357592 0.0 1017381
12:00+13sse465992 0.0 10161057
15:00+16sse354992 0.0 10151708
18:00+13se3464100 0.0 1014205
21:00+12se2464100 0.0 101474
15 april, thu
thu1500:00+11e3672100 0.0 1013177
03:00+10se4774100 0.0 1013236
06:00+8ese4782100 0.0 1013192
09:00+9ese5675100 0.0 1012469
12:00+9se5688100 0.2 1012423
15:00+10se4583100 0.4 1012542
18:00+8ese3594100 0.9 1011245
21:00+8se3495100 1.8 1010303
16 april, fri
fri1600:00+7se4794100 0.5 1010341
03:00+7sse5890100 0.6 1011434
06:00+5sse5788100 0.0 1011623
09:00+6se5785100 0.1 1012727
12:00+7sse5982100 0.3 1013911
15:00+9s796898 0.4 10131093
18:00+5s5791100 0.1 1015544
21:00+6sse358450 0.3 1016339
17 april, sat
sat1700:00+4ese238836 0.0 101736
03:00+5e358760 0.0 1018127
06:00+4ene358892 0.0 1018145
09:00+8ese347398 0.0 1019456
12:00+10sse2257100 0.0 1020946
15:00+11ssw4258100 0.0 10201167
18:00+10ssw3264100 0.0 1020496
21:00+8n247752 0.1 1021153